Japanese version Home page |
Updated on April 9, 2024 |
Profile
|
Orbital ElementsEpoch = 2013 Jan. 28.0 TT T = 2013 Jan. 24.74500 TT Peri. = 353.15904 e = 0.3396577 Node = 94.52353 2000.0 q = 3.1734284 AU Incl. = 6.11884 a = 4.8057323 AU n = 0.09355451 P = 10.54 years
|
Magnitudes Graphm1 = 13.5 + 5 log d + 10.0 log r
|
The orbital elements are printed on CBET 5356.
|